Time,TemperatureF,DewpointF,PressureIn,WindDirection,WindDirectionDegrees,WindSpeedMPH,WindSpeedGustMPH,Humidity,HourlyPrecipIn,Conditions,Clouds,dailyrainin,SolarRadiationWatts/m^2,SoftwareType,DateUTC
2013-10-17 00:04:00,45.0,43.0,-100.00,WNW,288,5.0,9.0,94,0.00,,,0.08,0.000000,,2013-10-17 04:04:00,
2013-10-17 00:43:00,45.0,43.0,-100.00,WNW,288,5.0,9.0,94,0.00,,,0.08,0.000000,,2013-10-17 04:43:00,
2013-10-17 00:54:00,45.0,43.0,-100.00,WNW,288,5.0,9.0,94,0.00,,,0.08,0.000000,,2013-10-17 04:54:00,
2013-10-17 01:42:00,44.0,42.0,-100.00,WNW,301,4.0,10.0,94,0.00,,,0.06,0.000000,,2013-10-17 05:42:00,
2013-10-17 01:52:00,44.0,42.0,-100.00,WNW,301,4.0,10.0,94,0.00,,,0.06,0.000000,,2013-10-17 05:52:00,
2013-10-17 02:02:00,44.0,42.0,-100.00,WNW,301,4.0,10.0,94,0.00,,,0.06,0.000000,,2013-10-17 06:02:00,
2013-10-17 02:42:00,44.0,42.0,-100.00,WNW,288,4.0,8.0,94,0.00,,,0.05,0.000000,,2013-10-17 06:42:00,
2013-10-17 02:52:00,44.0,42.0,-100.00,WNW,288,4.0,8.0,94,0.00,,,0.05,0.000000,,2013-10-17 06:52:00,
2013-10-17 03:02:00,44.0,42.0,-100.00,WNW,288,4.0,8.0,94,0.00,,,0.05,0.000000,,2013-10-17 07:02:00,
2013-10-17 03:22:00,44.0,42.0,-100.00,West,274,7.0,10.0,94,0.00,,,0.05,0.000000,,2013-10-17 07:22:00,
2013-10-17 03:32:00,44.0,42.0,-100.00,West,274,7.0,10.0,94,0.00,,,0.05,0.000000,,2013-10-17 07:32:00,
2013-10-17 03:43:00,44.0,42.0,-100.00,West,274,7.0,10.0,94,0.00,,,0.05,0.000000,,2013-10-17 07:43:00,
2013-10-17 03:52:00,44.0,42.0,-100.00,West,274,7.0,10.0,94,0.00,,,0.05,0.000000,,2013-10-17 07:52:00,
2013-10-17 04:02:00,44.0,42.0,-100.00,West,274,7.0,10.0,94,0.00,,,0.05,0.000000,,2013-10-17 08:02:00,
2013-10-17 04:22:00,43.0,40.0,-100.00,WNW,294,4.0,11.0,90,0.00,,,0.05,0.000000,,2013-10-17 08:22:00,
2013-10-17 04:32:00,43.0,40.0,-100.00,WNW,294,4.0,11.0,90,0.00,,,0.05,0.000000,,2013-10-17 08:32:00,
2013-10-17 04:42:00,43.0,40.0,-100.00,WNW,294,4.0,11.0,90,0.00,,,0.05,0.000000,,2013-10-17 08:42:00,
2013-10-17 04:52:00,43.0,40.0,-100.00,WNW,294,4.0,11.0,90,0.00,,,0.05,0.000000,,2013-10-17 08:52:00,
2013-10-17 05:02:00,43.0,40.0,-100.00,WNW,294,4.0,11.0,90,0.00,,,0.05,0.000000,,2013-10-17 09:02:00,
2013-10-17 05:22:00,43.0,40.0,-100.00,West,273,3.0,7.0,88,0.00,,,0.05,0.000000,,2013-10-17 09:22:00,
2013-10-17 05:33:00,43.0,40.0,-100.00,West,273,3.0,7.0,88,0.00,,,0.05,0.000000,,2013-10-17 09:33:00,
2013-10-17 05:43:00,43.0,40.0,-100.00,West,273,3.0,7.0,88,0.00,,,0.05,0.000000,,2013-10-17 09:43:00,
2013-10-17 05:53:00,43.0,40.0,-100.00,West,273,3.0,7.0,88,0.00,,,0.05,0.000000,,2013-10-17 09:53:00,
2013-10-17 06:03:00,43.0,40.0,-100.00,West,273,3.0,7.0,88,0.00,,,0.05,0.000000,,2013-10-17 10:03:00,
2013-10-17 06:42:00,40.0,36.0,-100.00,North,351,4.0,5.0,87,0.00,,,0.05,0.000000,,2013-10-17 10:42:00,
2013-10-17 06:53:00,40.0,36.0,-100.00,North,351,4.0,5.0,87,0.00,,,0.05,0.000000,,2013-10-17 10:53:00,
2013-10-17 07:02:00,40.0,36.0,-100.00,North,351,4.0,5.0,87,0.00,,,0.05,0.000000,,2013-10-17 11:02:00,
2013-10-17 07:42:00,38.0,34.0,-100.00,West,280,2.0,6.0,85,0.00,,,0.04,0.000000,,2013-10-17 11:42:00,
2013-10-17 07:52:00,38.0,34.0,-100.00,West,280,2.0,6.0,85,0.00,,,0.04,0.000000,,2013-10-17 11:52:00,
2013-10-17 08:02:00,38.0,34.0,-100.00,West,280,2.0,6.0,85,0.00,,,0.04,0.000000,,2013-10-17 12:02:00,
2013-10-17 09:42:00,36.0,35.0,-100.00,SW,231,1.0,3.0,95,-99.99,,,0.04,48.000000,,2013-10-17 13:42:00,
2013-10-17 09:52:00,36.0,35.0,-100.00,SW,231,1.0,3.0,95,-99.99,,,0.04,48.000000,,2013-10-17 13:52:00,
2013-10-17 10:02:00,36.0,35.0,-100.00,SW,231,1.0,3.0,95,-99.99,,,0.04,48.000000,,2013-10-17 14:02:00,
2013-10-17 10:42:00,41.0,38.0,-100.00,WNW,285,4.0,7.0,88,0.00,,,0.04,120.000000,,2013-10-17 14:42:00,
2013-10-17 10:52:00,41.0,38.0,-100.00,WNW,285,4.0,7.0,88,0.00,,,0.04,120.000000,,2013-10-17 14:52:00,
2013-10-17 11:02:00,41.0,38.0,-100.00,WNW,285,4.0,7.0,88,0.00,,,0.04,120.000000,,2013-10-17 15:02:00,
2013-10-17 11:43:00,43.0,37.0,-100.00,West,277,5.0,8.0,79,0.00,,,0.04,109.000000,,2013-10-17 15:43:00,
2013-10-17 11:54:00,43.0,37.0,-100.00,West,277,5.0,8.0,79,0.00,,,0.04,109.000000,,2013-10-17 15:54:00,
2013-10-17 12:03:00,43.0,37.0,-100.00,West,277,5.0,8.0,79,0.00,,,0.04,109.000000,,2013-10-17 16:03:00,
2013-10-17 12:23:00,47.0,38.0,-100.00,WNW,284,5.0,10.0,71,0.00,,,0.02,288.000000,,2013-10-17 16:23:00,
2013-10-17 12:33:00,47.0,38.0,-100.00,WNW,284,5.0,10.0,71,0.00,,,0.02,288.000000,,2013-10-17 16:33:00,
2013-10-17 12:42:00,47.0,38.0,-100.00,WNW,284,5.0,10.0,71,0.00,,,0.02,288.000000,,2013-10-17 16:42:00,
2013-10-17 12:54:00,47.0,38.0,-100.00,WNW,284,5.0,10.0,71,0.00,,,0.02,288.000000,,2013-10-17 16:54:00,
2013-10-17 13:02:00,47.0,38.0,-100.00,WNW,284,5.0,10.0,71,0.00,,,0.02,288.000000,,2013-10-17 17:02:00,
2013-10-17 13:22:00,51.0,34.0,-100.00,NNW,332,4.0,10.0,53,0.00,,,0.01,637.000000,,2013-10-17 17:22:00,
2013-10-17 13:33:00,51.0,34.0,-100.00,NNW,332,4.0,10.0,53,0.00,,,0.01,637.000000,,2013-10-17 17:33:00,
2013-10-17 13:42:00,51.0,34.0,-100.00,NNW,332,4.0,10.0,53,0.00,,,0.01,637.000000,,2013-10-17 17:42:00,
2013-10-17 13:53:00,51.0,34.0,-100.00,NNW,332,4.0,10.0,53,0.00,,,0.01,637.000000,,2013-10-17 17:53:00,
2013-10-17 14:02:00,51.0,34.0,-100.00,NNW,332,4.0,10.0,53,0.00,,,0.01,637.000000,,2013-10-17 18:02:00,
2013-10-17 14:42:00,47.0,33.0,-100.00,WNW,289,5.0,10.0,58,0.00,,,0.01,165.000000,,2013-10-17 18:42:00,
2013-10-17 14:52:00,47.0,33.0,-100.00,WNW,289,5.0,10.0,58,0.00,,,0.01,165.000000,,2013-10-17 18:52:00,
2013-10-17 15:02:00,47.0,33.0,-100.00,WNW,289,5.0,10.0,58,0.00,,,0.01,165.000000,,2013-10-17 19:02:00,
2013-10-17 15:42:00,49.0,35.0,-100.00,NNW,340,3.0,7.0,59,0.00,,,0.01,171.000000,,2013-10-17 19:42:00,
2013-10-17 15:53:00,49.0,35.0,-100.00,NNW,340,3.0,7.0,59,0.00,,,0.01,171.000000,,2013-10-17 19:53:00,
2013-10-17 16:02:00,49.0,35.0,-100.00,NNW,340,3.0,7.0,59,0.00,,,0.01,171.000000,,2013-10-17 20:02:00,
2013-10-17 16:42:00,49.0,34.0,-100.00,North,2,3.0,7.0,57,0.00,,,0.01,219.000000,,2013-10-17 20:42:00,
2013-10-17 16:52:00,49.0,34.0,-100.00,North,2,3.0,7.0,57,0.00,,,0.01,219.000000,,2013-10-17 20:52:00,
2013-10-17 17:02:00,49.0,34.0,-100.00,North,2,3.0,7.0,57,0.00,,,0.01,219.000000,,2013-10-17 21:02:00,
2013-10-17 17:04:00,48.0,35.0,-100.00,ENE,59,4.0,6.0,61,0.00,,,0.01,102.000000,,2013-10-17 21:04:00,
2013-10-17 17:44:00,48.0,35.0,-100.00,ENE,59,4.0,6.0,61,0.00,,,0.01,102.000000,,2013-10-17 21:44:00,
2013-10-17 17:54:00,48.0,35.0,-100.00,ENE,59,4.0,6.0,61,0.00,,,0.01,102.000000,,2013-10-17 21:54:00,
2013-10-17 18:24:00,46.0,37.0,-100.00,ESE,112,2.0,5.0,71,0.00,,,0.01,46.000000,,2013-10-17 22:24:00,
2013-10-17 18:33:00,46.0,37.0,-100.00,ESE,112,2.0,5.0,71,0.00,,,0.01,46.000000,,2013-10-17 22:33:00,
2013-10-17 18:43:00,46.0,37.0,-100.00,ESE,112,2.0,5.0,71,0.00,,,0.01,46.000000,,2013-10-17 22:43:00,
2013-10-17 18:53:00,46.0,37.0,-100.00,ESE,112,2.0,5.0,71,0.00,,,0.01,46.000000,,2013-10-17 22:53:00,
2013-10-17 19:03:00,46.0,37.0,-100.00,ESE,112,2.0,5.0,71,0.00,,,0.01,46.000000,,2013-10-17 23:03:00,
2013-10-17 19:43:00,42.0,38.0,-100.00,ESE,115,0.0,2.0,84,0.00,,,0.01,11.000000,,2013-10-17 23:43:00,
2013-10-17 19:53:00,42.0,38.0,-100.00,ESE,115,0.0,2.0,84,0.00,,,0.01,11.000000,,2013-10-17 23:53:00,
2013-10-17 20:02:00,42.0,38.0,-100.00,ESE,115,0.0,2.0,84,0.00,,,0.01,11.000000,,2013-10-18 00:02:00,
2013-10-17 21:42:00,42.0,40.0,-100.00,NW,323,1.0,3.0,93,0.00,,,0.01,0.000000,,2013-10-18 01:42:00,
2013-10-17 21:53:00,42.0,40.0,-100.00,NW,323,1.0,3.0,93,0.00,,,0.01,0.000000,,2013-10-18 01:53:00,
2013-10-17 22:02:00,42.0,40.0,-100.00,NW,323,1.0,3.0,93,0.00,,,0.01,0.000000,,2013-10-18 02:02:00,
2013-10-17 22:42:00,42.0,38.0,-100.00,West,268,2.0,3.0,86,0.00,,,0.01,0.000000,,2013-10-18 02:42:00,
2013-10-17 22:52:00,42.0,38.0,-100.00,West,268,2.0,3.0,86,0.00,,,0.01,0.000000,,2013-10-18 02:52:00,
2013-10-17 23:03:00,42.0,38.0,-100.00,West,268,2.0,3.0,86,0.00,,,0.01,0.000000,,2013-10-18 03:03:00,
2013-10-17 23:04:00,43.0,37.0,-100.00,WNW,285,2.0,5.0,80,0.00,,,0.00,0.000000,,2013-10-18 03:04:00,
2013-10-17 23:44:00,43.0,37.0,-100.00,WNW,285,2.0,5.0,80,0.00,,,0.00,0.000000,,2013-10-18 03:44:00,
2013-10-17 23:55:00,43.0,37.0,-100.00,WNW,285,2.0,5.0,80,0.00,,,0.00,0.000000,,2013-10-18 03:55:00,